Pontiac, MI

8:42 PM EST on November 11, 2019 (GMT -0500)
Oakland County International

Weather History for KPTK - June, 2019

Change the Weather History Date:

Wednesday, June 5, 2019

  Actual Average Record
Temperature  
Mean Temperature 68 °F -  
Max Temperature 78 °F 71 °F 91 °F (2005)
Min Temperature 61 °F 51 °F 42 °F (1998)
Cooling Degree Days 4    
Growing Degree Days 18 (Base 50)    
Moisture  
Dew Point 63 °F    
Average Humidity 88    
Maximum Humidity 100    
Minimum Humidity 71    
Precipitation  
Precipitation 0.74 in - - ()
Sea Level Pressure  
Sea Level Pressure 29.72 in    
Wind  
Wind Speed 8 mph (West)    
Max Wind Speed 23 mph    
Max Gust Speed 32 mph    
Visibility 8 miles    
Events Rain , Thunderstorm    
Averages and records for this station are not official NWS values.
T = Trace of Precipitation, MM = Missing Value Source: NWS Daily Summary

Daily Weather History Graph

Daily Weather History Graph

Search for Another Location

Airport or City:

Astronomy

Jun. 05, 2019 Rise Set
Actual Time 5:56 AM EDT 9:07 PM EDT
Civil Twilight 5:22 AM EDT 9:42 PM EDT
Nautical Twilight 4:38 AM EDT 10:26 PM EDT
Astronomical Twilight 3:44 AM EDT 11:20 PM EDT
Moon 8:01 AM EDT (6/5) 11:33 PM EDT (6/5)
Length of Visible Light 16h 19m
Length of Day
15h 10m
Waxing Crescent, 6% of the Moon is Illuminated
Jun 5
Waxing Crescent
Jun 10
First Quarter
Jun 17
Full
Jun 25
Last Quarter
Jul 2
New

Hourly Weather History & Observations

Time (EDT) Temp. Dew Point Humidity Pressure Visibility Wind Dir Wind Speed Gust Speed Precip Events Conditions
12:53 AM 66.0 °F 57.0 °F 73% 29.79 in 10.0 mi South 3.5 mph - N/A   Partly Cloudy
1:53 AM 66.0 °F 57.9 °F 75% 29.78 in 10.0 mi South 4.6 mph - N/A   Partly Cloudy
2:53 AM 64.0 °F 57.0 °F 78% 29.77 in 10.0 mi Calm Calm - N/A   Partly Cloudy
3:53 AM 63.0 °F 57.9 °F 84% 29.74 in 10.0 mi SSE 3.5 mph - N/A   Partly Cloudy
4:53 AM 63.0 °F 57.9 °F 84% 29.73 in 10.0 mi South 4.6 mph - N/A   Clear
5:53 AM 64.0 °F 55.9 °F 75% 29.73 in 10.0 mi SSW 4.6 mph - N/A   Mostly Cloudy
6:53 AM 64.9 °F 55.9 °F 73% 29.73 in 7.0 mi SSW 6.9 mph - 0.00 in Rain Light Rain
6:56 AM 64.9 °F 57.0 °F 75% 29.75 in 6.0 mi SW 10.4 mph - 0.00 in Rain , Thunderstorm Light Thunderstorms and Rain
7:07 AM 64.0 °F 57.9 °F 80% 29.77 in 2.0 mi WSW 18.4 mph 25.3 mph 0.04 in Rain , Thunderstorm Heavy Thunderstorms and Rain
7:23 AM 62.1 °F 61.0 °F 96% 29.76 in 2.0 mi WSW 17.3 mph - 0.18 in Rain , Thunderstorm Thunderstorms and Rain
7:26 AM 62.1 °F 61.0 °F 96% 29.76 in 3.0 mi WSW 13.8 mph - 0.18 in Rain , Thunderstorm Thunderstorms and Rain
7:28 AM 63.0 °F 62.1 °F 97% 29.76 in 2.5 mi WSW 15.0 mph - 0.19 in Rain , Thunderstorm Thunderstorms and Rain
7:40 AM 63.0 °F 62.1 °F 97% 29.76 in 2.5 mi WSW 10.4 mph - 0.24 in Rain Rain
7:53 AM 63.0 °F 63.0 °F 100% 29.73 in 2.5 mi WSW 8.1 mph - 0.29 in Rain Rain
8:16 AM 64.0 °F 64.0 °F 100% 29.72 in 3.0 mi WSW 3.5 mph - 0.05 in Rain Rain
8:53 AM 64.9 °F 64.0 °F 97% 29.67 in 10.0 mi SE 5.8 mph - 0.07 in Rain Light Rain
9:11 AM 66.0 °F 64.0 °F 93% 29.69 in 10.0 mi NW 5.8 mph - 0.00 in   Mostly Cloudy
9:53 AM 66.9 °F 64.0 °F 90% 29.67 in 10.0 mi WSW 4.6 mph - 0.00 in   Mostly Cloudy
10:53 AM 69.1 °F 64.9 °F 87% 29.68 in 10.0 mi South 8.1 mph - N/A   Mostly Cloudy
11:15 AM 70.0 °F 64.9 °F 84% 29.69 in 10.0 mi SW 9.2 mph - N/A   Mostly Cloudy
11:35 AM 71.1 °F 64.9 °F 81% 29.69 in 10.0 mi SSW 8.1 mph - N/A   Overcast
11:53 AM 71.1 °F 64.9 °F 81% 29.69 in 10.0 mi WSW 10.4 mph - N/A   Overcast
12:53 PM 72.0 °F 64.9 °F 78% 29.70 in 10.0 mi WSW 8.1 mph - N/A   Overcast
1:08 PM 71.1 °F 64.9 °F 81% 29.71 in 10.0 mi WSW 10.4 mph - N/A   Overcast
1:45 PM 71.1 °F 66.0 °F 84% 29.71 in 10.0 mi West 8.1 mph - 0.00 in   Overcast
1:53 PM 71.1 °F 64.9 °F 81% 29.69 in 10.0 mi WNW 5.8 mph - 0.00 in   Overcast
2:53 PM 72.0 °F 66.0 °F 81% 29.68 in 10.0 mi WSW 5.8 mph - 0.00 in   Overcast
3:53 PM 75.9 °F 66.0 °F 71% 29.66 in 10.0 mi West 15.0 mph - N/A   Mostly Cloudy
4:53 PM 75.0 °F 66.0 °F 73% 29.65 in 10.0 mi WNW 4.6 mph - 0.00 in Rain Light Rain
5:53 PM 73.9 °F 69.1 °F 85% 29.65 in 10.0 mi NNW 5.8 mph - 0.01 in Rain Light Rain
6:28 PM 73.9 °F 68.0 °F 82% 29.67 in 10.0 mi North 12.7 mph 24.2 mph 0.00 in Thunderstorm Thunderstorm
6:33 PM 70.0 °F 66.0 °F 87% 29.69 in 1.8 mi NW 23.0 mph 32.2 mph 0.06 in Rain , Thunderstorm Heavy Thunderstorms and Rain
6:35 PM 69.1 °F 66.0 °F 90% 29.70 in 0.8 mi WNW 21.9 mph 32.2 mph 0.16 in Rain , Thunderstorm Heavy Thunderstorms and Rain
6:44 PM 66.9 °F 66.0 °F 97% 29.69 in 1.2 mi NW 8.1 mph - 0.32 in Rain , Thunderstorm Thunderstorms and Rain
6:50 PM 66.2 °F 64.4 °F 94% 29.68 in 2.5 mi WNW 6.9 mph - 0.36 in Rain , Thunderstorm Thunderstorms and Rain
6:53 PM 66.0 °F 64.9 °F 96% 29.68 in 3.0 mi WNW 8.1 mph - 0.37 in Rain , Thunderstorm Light Thunderstorms and Rain
7:16 PM 68.0 °F 66.9 °F 96% 29.70 in 10.0 mi WNW 5.8 mph - 0.00 in   Overcast
7:53 PM 69.1 °F 66.9 °F 93% 29.70 in 10.0 mi NNW 10.4 mph - 0.00 in   Overcast
8:26 PM 68.0 °F 66.0 °F 93% 29.72 in 10.0 mi NNW 9.2 mph - N/A   Mostly Cloudy
8:39 PM 66.9 °F 64.9 °F 93% 29.73 in 10.0 mi North 10.4 mph - N/A   Overcast
8:53 PM 66.0 °F 64.0 °F 93% 29.73 in 10.0 mi NNW 8.1 mph - N/A   Mostly Cloudy
9:08 PM 64.9 °F 64.0 °F 97% 29.74 in 10.0 mi NNW 6.9 mph - N/A   Scattered Clouds
9:32 PM 64.9 °F 64.0 °F 97% 29.74 in 9.0 mi NNW 6.9 mph - N/A   Mostly Cloudy
9:53 PM 64.9 °F 64.0 °F 97% 29.74 in 8.0 mi North 8.1 mph - N/A   Mostly Cloudy
10:35 PM 64.0 °F 62.1 °F 93% 29.76 in 8.0 mi North 11.5 mph - N/A   Overcast
10:53 PM 63.0 °F 61.0 °F 93% 29.77 in 8.0 mi North 12.7 mph - N/A   Overcast
11:53 PM 61.0 °F 60.1 °F 97% 29.80 in 8.0 mi North 5.8 mph - N/A   Overcast